Wind_Speed
20 20 21 21 22 23 25 26 26 25 26 25 25 26 28 31 31 32 32 34 34 32 32 30 30 32 38 41 42 41 38 36 33 31 30 28 26 27 29 32 32 30 30 31
22 22 22 24 25 26 27 28 29 29 29 28 29 25 26 31 31 32 34 35 36 35 35 32 32 34 39 41 40 40 41 37 34 32 29 29 27 27 28 30 35 37 36 34
24 25 25 26 27 28 31 32 33 34 33 33 32 27 23 26 27 31 33 36 37 36 34 33 35 36 40 42 41 41 41 37 34 32 31 30 29 27 30 32 32 35 38 37
27 27 28 29 29 31 33 34 35 36 37 37 33 33 26 24 31 31 34 36 37 35 33 36 37 37 40 41 41 41 38 36 35 32 31 31 31 32 32 33 34 35 34 38
30 30 31 30 32 33 34 36 38 39 39 38 34 34 28 33 30 36 38 40 37 35 36 39 38 38 39 40 41 42 42 41 36 34 33 32 32 34 35 34 33 33 32 32
33 32 32 33 34 35 38 39 41 42 41 38 37 36 34 36 33 41 47 45 40 37 41 41 40 39 39 41 43 44 42 42 38 37 36 35 37 38 39 39 37 35 36 36
34 32 33 35 35 37 39 40 42 44 43 40 39 40 41 40 38 46 48 44 40 41 42 41 40 41 41 42 45 45 44 42 41 40 42 40 41 43 43 43 43 44 41 42
38 38 36 35 37 39 39 41 40 43 41 42 43 45 47 44 44 47 46 42 43 43 44 43 42 42 44 44 47 46 44 42 43 43 44 43 44 45 44 43 43 42 43 43
41 42 42 39 38 38 40 41 39 43 41 44 46 48 49 50 49 50 48 47 45 45 45 42 42 44 47 47 47 46 45 44 42 43 42 43 45 44 45 47 48 49 48 48
43 43 44 43 40 39 41 42 43 44 44 46 47 48 51 53 52 50 48 45 46 49 44 41 47 46 46 47 47 47 47 46 45 44 44 45 45 47 49 51 53 54 53 54
45 45 47 46 46 42 41 42 43 44 45 49 49 49 48 53 46 46 46 52 50 49 46 48 49 45 45 44 45 48 49 48 47 46 48 50 52 53 54 55 55 57 58 60
48 50 49 49 51 47 44 43 45 48 39 42 49 58 54 40 41 43 53 51 49 55 51 55 54 45 46 45 46 45 45 46 48 51 53 55 57 57 59 59 57 59 60 58
50 51 51 51 53 50 49 46 44 44 44 50 54 55 45 41 43 53 52 44 48 50 54 56 52 47 44 43 44 50 54 55 56 57 57 57 61 63 64 63 62 59 63 65
51 51 53 53 53 52 52 52 47 49 54 53 58 52 44 44 53 55 48 48 52 55 58 52 49 47 47 51 53 55 56 58 60 62 63 62 64 69 69 67 65 66 68 67
55 55 54 52 55 54 53 52 51 52 53 57 52 52 46 53 55 54 53 53 57 59 52 53 54 55 56 58 57 56 57 59 60 64 69 69 66 65 59 60 62 62 65 65
51 53 52 52 51 48 51 51 49 48 49 54 54 53 54 56 59 59 59 60 61 55 58 58 58 60 59 59 58 59 61 61 59 64 72 68 63 68 62 66 70 68 67 68
48 46 44 45 45 50 55 50 52 53 52 53 54 55 54 57 61 62 60 62 61 61 61 61 62 64 64 62 63 64 63 59 60 69 73 75 73 72 72 71 71 69 66 66
51 51 54 55 52 58 56 54 53 54 59 60 56 55 58 68 67 60 64 64 64 65 67 66 65 67 65 64 66 66 58 60 63 70 76 79 83 84 81 79 74 70 69 65
50 52 53 54 55 57 51 56 54 54 50 52 54 60 67 67 67 69 68 67 68 69 72 71 69 68 67 61 64 66 64 65 67 67 73 82 82 81 80 79 74 66 66 63
52 51 50 51 51 54 51 48 55 51 55 56 63 70 71 69 73 74 72 71 72 72 74 72 68 68 66 68 69 74 78 72 70 71 73 79 83 78 76 74 66 62 60 53
55 51 49 49 42 42 44 54 59 59 60 65 69 69 69 72 78 76 70 70 77 76 73 71 70 69 70 67 71 75 80 83 82 80 77 76 75 74 70 68 66 62 59 55
38 36 43 44 46 51 62 65 65 66 65 66 63 67 69 80 78 72 71 78 77 74 72 73 70 70 70 72 75 78 80 81 80 80 77 71 68 68 68 69 68 64 60 56
50 51 54 59 64 66 65 65 53 63 76 66 70 77 75 74 71 75 76 76 72 74 75 74 75 74 75 77 78 80 79 78 75 71 72 73 71 69 67 66 64 61 57 53
56 56 64 63 56 63 66 67 74 74 72 72 71 72 74 72 73 76 77 75 76 77 78 79 79 79 80 80 79 77 75 76 76 73 71 70 70 68 66 64 61 59 56 52
60 55 58 62 68 53 66 75 72 71 70 66 69 74 74 76 76 74 76 77 80 81 81 81 80 78 76 76 77 76 75 74 72 70 68 67 66 63 61 59 57 55 53 52
62 62 64 65 65 68 70 71 69 66 69 69 70 70 70 72 74 77 80 81 79 78 77 77 76 76 77 77 75 74 74 73 72 70 70 69 68 66 64 61 57 54 51 49
Wind_Direction
313 314 313 313 313 312 312 313 313 311 310 312 309 303 297 297 300 301 301 304 307 310 311 308 307 302 299 301 303 306 310 307 308 310 308 301 296 293 290 293 290 288 285 281
311 311 310 310 308 310 310 311 310 309 307 307 306 306 299 297 299 300 301 305 308 310 309 305 307 307 304 304 305 305 305 304 306 307 303 300 299 293 291 286 286 289 290 284
308 308 308 308 308 308 309 309 309 309 307 306 306 303 297 294 299 299 299 305 307 309 306 306 308 308 307 305 306 303 303 304 304 305 303 302 301 294 289 287 284 283 285 283
303 305 307 307 307 309 309 309 308 306 306 306 310 306 306 297 306 297 302 304 305 306 306 307 307 304 306 309 307 306 305 303 301 300 301 302 301 299 295 290 287 285 282 283
303 304 306 307 309 310 310 309 307 305 304 304 304 302 306 305 307 302 307 308 306 307 309 309 306 304 308 309 308 307 305 301 296 295 296 297 296 298 298 293 288 286 283 278
300 304 306 307 309 310 309 307 307 304 301 302 304 306 312 316 312 307 311 312 309 308 311 308 305 305 306 309 310 309 307 302 295 294 294 294 296 299 297 293 290 286 285 282
299 302 304 306 306 307 305 305 304 304 305 304 304 306 309 314 314 310 310 309 308 310 311 307 304 306 306 310 310 309 306 302 296 288 289 292 296 297 295 292 290 290 288 286
301 305 304 304 305 304 303 302 300 299 301 301 301 305 309 311 312 308 308 306 310 312 309 306 309 310 310 310 308 309 305 303 301 298 296 295 296 294 292 290 290 288 287 286
298 302 303 304 303 300 301 299 297 294 293 295 299 304 304 315 313 309 309 312 312 311 308 309 313 312 310 306 305 305 302 298 297 293 292 294 293 293 291 289 287 287 286 286
294 295 299 300 299 298 296 298 298 295 296 298 301 302 304 313 309 303 306 313 311 306 303 305 313 308 305 304 302 301 297 293 289 291 293 294 289 287 287 289 289 287 289 288
292 293 297 299 299 298 295 296 295 296 294 291 295 301 307 305 302 298 308 311 308 300 301 303 310 301 302 302 300 299 297 293 290 290 290 287 287 289 291 289 286 286 287 288
293 294 297 299 298 296 297 296 296 297 292 283 287 298 303 299 293 298 309 308 301 299 301 308 309 302 301 299 297 296 293 291 288 285 286 287 287 290 292 292 288 288 292 296
292 293 296 297 296 294 296 296 293 292 287 287 293 303 302 296 292 302 307 302 296 295 301 304 301 299 297 294 294 295 291 288 289 284 284 286 285 287 288 291 292 297 297 297
292 291 293 291 289 289 291 290 285 284 282 289 294 299 296 293 296 307 302 296 295 298 301 299 294 292 294 295 294 290 286 288 291 289 287 289 284 285 284 289 291 291 292 298
292 292 289 289 289 286 287 287 290 291 288 289 297 293 295 293 302 300 296 296 299 301 297 295 291 291 294 296 293 290 288 287 284 283 283 282 278 278 285 287 289 293 297 300
291 291 291 286 289 287 289 294 294 292 293 293 295 294 290 297 299 298 295 295 297 293 297 296 292 294 293 293 290 288 288 287 283 283 279 277 277 285 292 295 298 302 303 304
293 292 294 291 295 292 291 295 293 293 291 297 292 292 295 300 301 299 296 298 296 295 296 296 295 294 293 293 291 290 288 289 284 282 282 282 280 283 292 305 306 305 305 302
289 292 295 297 295 293 297 296 295 293 295 295 289 297 298 300 301 298 298 298 296 295 296 299 297 294 295 294 294 293 285 283 283 283 283 284 287 290 295 305 306 303 301 300
289 293 294 293 294 295 291 290 289 294 291 288 287 293 296 298 298 298 300 298 298 297 297 298 296 294 298 293 287 279 273 277 282 285 286 285 288 291 295 300 300 298 297 296
289 288 288 290 290 291 292 291 300 296 287 288 290 294 296 296 299 300 298 296 298 297 295 296 293 292 297 297 287 284 280 283 286 286 287 289 295 298 298 296 294 292 291 291
289 290 288 290 283 273 274 288 293 288 291 292 294 293 293 291 296 297 295 290 294 294 294 294 293 293 296 290 285 286 288 290 294 298 297 297 295 294 292 290 290 288 289 290
289 282 285 283 271 275 284 289 293 292 292 298 290 291 286 290 294 293 288 290 294 294 292 292 294 295 294 293 292 291 291 292 294 297 296 294 291 290 289 289 289 290 290 289
276 271 269 270 276 281 286 290 286 287 294 290 283 288 291 291 292 292 293 297 294 291 294 296 298 298 297 295 294 295 295 294 294 293 292 291 290 289 288 289 288 289 288 287
276 279 277 281 279 284 286 284 288 290 290 290 290 289 291 293 291 292 295 295 294 296 298 299 299 298 297 297 296 294 292 291 293 292 291 290 289 288 288 288 287 286 285 284
280 277 275 278 283 277 280 289 288 289 289 286 285 287 290 290 292 294 296 297 297 298 298 297 297 296 295 295 295 294 293 292 292 291 291 289 288 288 288 287 286 285 283 281
279 280 279 279 280 281 283 285 287 288 288 288 289 291 292 294 296 297 296 296 296 296 295 295 296 297 297 296 295 295 293 293 292 291 289 288 287 286 284 283 282 282 281 280
Height
5823 5821 5817 5815 5812 5809 5806 5802 5799 5796 5791 5788 5784 5780 5776 5772 5769 5765 5761 5758 5754 5750 5746 5741 5737 5733 5728 5724 5719 5715 5711 5707 5704 5702 5700 5698 5697 5695 5694 5692 5690 5688 5686 5685
5820 5817 5814 5811 5808 5805 5802 5799 5794 5790 5786 5782 5778 5776 5771 5766 5762 5758 5753 5750 5746 5742 5738 5734 5730 5726 5721 5716 5711 5707 5703 5700 5697 5695 5692 5690 5689 5687 5686 5684 5683 5680 5679 5677
5816 5813 5810 5807 5804 5800 5796 5791 5787 5783 5779 5775 5771 5769 5766 5761 5757 5751 5747 5742 5739 5735 5731 5727 5722 5717 5712 5707 5703 5699 5695 5692 5689 5687 5684 5681 5680 5679 5677 5675 5674 5672 5670 5668
5811 5808 5805 5802 5798 5795 5791 5786 5781 5776 5771 5767 5764 5760 5759 5755 5751 5744 5740 5736 5731 5726 5722 5718 5713 5709 5704 5699 5694 5691 5688 5684 5681 5678 5676 5673 5670 5669 5667 5665 5664 5662 5660 5658
5806 5802 5799 5796 5793 5788 5784 5779 5774 5768 5763 5759 5757 5753 5751 5747 5743 5736 5731 5727 5722 5717 5713 5709 5705 5700 5696 5690 5686 5682 5679 5675 5673 5670 5667 5664 5661 5659 5656 5654 5653 5651 5650 5649
5798 5796 5793 5789 5785 5780 5776 5771 5766 5760 5755 5752 5748 5745 5744 5737 5734 5725 5720 5716 5713 5709 5704 5700 5695 5691 5687 5682 5678 5674 5670 5667 5664 5661 5658 5655 5652 5649 5646 5644 5642 5640 5638 5637
5792 5789 5785 5782 5777 5773 5767 5762 5757 5750 5746 5742 5738 5734 5732 5728 5724 5717 5711 5707 5704 5700 5695 5691 5686 5682 5678 5674 5669 5666 5662 5658 5655 5651 5649 5646 5643 5639 5636 5633 5631 5628 5626 5624
5782 5779 5778 5774 5770 5765 5759 5754 5750 5741 5739 5735 5729 5726 5722 5719 5715 5708 5703 5699 5695 5691 5687 5682 5677 5673 5669 5665 5660 5656 5652 5648 5644 5641 5637 5634 5631 5628 5625 5621 5619 5616 5614 5611
5772 5770 5766 5765 5761 5756 5752 5746 5742 5734 5734 5727 5723 5718 5712 5707 5703 5696 5691 5689 5686 5681 5676 5672 5667 5663 5658 5654 5649 5645 5641 5637 5634 5630 5626 5623 5619 5616 5613 5611 5608 5604 5601 5598
5765 5761 5757 5755 5752 5748 5742 5738 5732 5726 5722 5717 5714 5708 5705 5698 5693 5687 5683 5681 5677 5672 5667 5662 5657 5652 5646 5642 5638 5634 5630 5626 5622 5618 5615 5611 5608 5604 5601 5598 5594 5590 5587 5584
5754 5752 5749 5744 5740 5736 5733 5727 5723 5717 5713 5706 5702 5701 5701 5689 5684 5676 5674 5671 5667 5662 5657 5652 5647 5640 5635 5630 5627 5623 5618 5615 5611 5607 5603 5599 5595 5590 5587 5583 5579 5575 5571 5568
5744 5739 5736 5733 5726 5723 5720 5717 5711 5705 5702 5694 5690 5687 5687 5680 5673 5669 5665 5658 5654 5650 5645 5639 5634 5629 5624 5619 5615 5611 5607 5603 5599 5594 5589 5585 5580 5576 5571 5567 5563 5559 5554 5549
5733 5727 5723 5721 5716 5712 5707 5704 5701 5696 5689 5685 5677 5680 5670 5668 5660 5657 5652 5648 5643 5638 5633 5627 5622 5617 5612 5607 5603 5599 5593 5588 5583 5579 5574 5569 5564 5559 5554 5550 5546 5541 5536 5531
5721 5718 5713 5708 5705 5700 5693 5691 5689 5684 5675 5674 5666 5662 5667 5654 5646 5643 5639 5633 5630 5625 5620 5614 5610 5605 5600 5596 5590 5584 5579 5574 5569 5564 5558 5553 5547 5541 5535 5531 5527 5522 5518 5513
5705 5703 5699 5695 5693 5687 5683 5679 5676 5668 5665 5656 5662 5650 5648 5642 5637 5631 5626 5622 5615 5610 5606 5601 5596 5591 5586 5581 5575 5569 5563 5558 5553 5547 5541 5534 5528 5521 5517 5511 5507 5503 5498 5492
5693 5686 5683 5681 5679 5673 5670 5667 5663 5657 5652 5644 5642 5642 5631 5629 5624 5619 5613 5607 5601 5595 5590 5585 5580 5574 5569 5563 5557 5552 5546 5540 5534 5529 5523 5516 5510 5504 5498 5493 5487 5482 5477 5472
5679 5675 5670 5668 5664 5660 5658 5656 5649 5645 5640 5636 5628 5624 5621 5615 5610 5605 5598 5592 5585 5580 5575 5569 5563 5557 5551 5545 5539 5533 5527 5521 5516 5511 5505 5499 5491 5484 5478 5473 5468 5462 5456 5452
5669 5664 5658 5655 5651 5645 5644 5640 5634 5628 5625 5621 5614 5612 5605 5598 5592 5587 5582 5576 5570 5563 5558 5552 5546 5539 5533 5526 5520 5513 5507 5501 5496 5492 5486 5480 5473 5466 5459 5453 5448 5443 5438 5431
5655 5649 5644 5638 5635 5633 5632 5625 5623 5615 5612 5607 5603 5598 5591 5584 5575 5570 5564 5557 5551 5544 5538 5532 5526 5519 5513 5508 5502 5496 5488 5482 5477 5471 5466 5460 5453 5446 5441 5436 5430 5424 5419 5413
5643 5636 5632 5627 5622 5618 5616 5610 5606 5602 5596 5595 5588 5581 5575 5568 5559 5552 5546 5539 5532 5526 5519 5512 5506 5501 5494 5489 5484 5477 5470 5463 5457 5451 5445 5439 5433 5426 5420 5415 5411 5407 5401 5396
5627 5622 5617 5614 5607 5605 5602 5601 5594 5589 5585 5576 5570 5563 5556 5549 5544 5536 5528 5521 5514 5507 5500 5494 5488 5482 5476 5470 5464 5457 5450 5443 5436 5429 5423 5417 5411 5406 5401 5396 5391 5387 5383 5380
5615 5610 5606 5601 5596 5592 5589 5585 5579 5572 5564 5560 5552 5545 5539 5531 5522 5515 5509 5502 5494 5488 5482 5476 5469 5463 5456 5450 5443 5436 5428 5421 5414 5407 5402 5396 5390 5385 5380 5376 5372 5367 5364 5362
5602 5601 5596 5591 5584 5577 5575 5570 5563 5554 5549 5543 5536 5527 5519 5511 5503 5496 5489 5482 5476 5469 5462 5456 5449 5442 5434 5426 5419 5412 5405 5398 5392 5386 5381 5375 5369 5364 5360 5356 5352 5348 5345 5343
5587 5583 5576 5573 5570 5563 5558 5554 5546 5538 5531 5524 5515 5507 5500 5492 5485 5478 5471 5464 5457 5449 5442 5434 5427 5418 5411 5403 5396 5389 5383 5376 5370 5364 5358 5352 5347 5343 5339 5335 5332 5329 5327 5325
5572 5569 5562 5556 5552 5547 5539 5532 5526 5519 5512 5505 5498 5490 5483 5475 5468 5461 5453 5445 5437 5429 5421 5413 5404 5396 5389 5381 5373 5365 5359 5353 5347 5341 5335 5329 5325 5321 5318 5315 5313 5310 5308 5307
5557 5553 5547 5541 5537 5528 5523 5516 5508 5502 5495 5487 5481 5474 5466 5457 5450 5442 5434 5424 5415 5407 5400 5392 5383 5375 5367 5358 5350 5342 5335 5329 5323 5318 5311 5306 5303 5300 5297 5295 5294 5292 5291 5289